Regional Weather Roundup
Issued by NWS Cleveland, OH

Home | Current Version | Previous Version | Graphics & Text | Print | Product List | Glossary On
Versions: 1 2 3 4 5 6 7 8 9 10 11 12 13 14 15 16 17 18 19 20 21 22 23 24 25 26 27 28 29 30 31 32 33 34 35 36 37 38 39 40 41 42 43 44 45 46 47 48 49 50
000
ASUS41 KCLE 280200
RWRCLE
OHIO REGIONAL WEATHER ROUNDUP
NATIONAL WEATHER SERVICE WILMINGTON, OH
900 PM EST FRI FEB 27 2015

NOTE: "FAIR" INDICATES FEW OR NO CLOUDS BELOW 12,000 FEET WITH NO
SIGNIFICANT WEATHER AND/OR OBSTRUCTIONS TO VISIBILITY.

OHZ001>008-015>018-024>027-034-035-043-044-280300-
   NORTHWEST OHIO

CITY           SKY/WX    TMP DP  RH WIND       PRES   REMARKS
DEFIANCE       CLEAR      5  -4  66 S3        30.65R
FINDLAY        CLEAR      1  -8  66 S6        30.63R WCI -10
TOLEDO EXPRESS FAIR       7  -4  60 S7        30.63R WCI  -5
TOLEDO EXEC    CLEAR      8  -4  58 SW6       30.65R WCI  -2
LIMA           PTCLDY     9  -5  53 S7        30.63R WCI  -2
$$

OHZ009>014-019>023-028>033-038-089-280300-
   NORTHEAST OHIO

CITY           SKY/WX    TMP DP  RH WIND       PRES   REMARKS
CLE-HOPKINS    CLEAR      9  -3  58 SW5       30.66R WCI   1
CLE-LAKEFRONT  CLEAR      8  -3  61 SW8       30.65R WCI  -4
CUY CO. ARPT   CLEAR      5   0  78 S5        30.63R WCI  -4
LORAIN-ELYRIA  CLEAR      1  -6  72 SW5       30.64R WCI  -9
ASHTABULA      CLEAR     -2 -10  69 CALM      30.62R
AKRON-CANTON   CLEAR      7  -4  60 SW3       30.60R
WOOSTER        NOT AVBL
MANSFIELD      PTCLDY     6  -4  63 W3        30.59R
YOUNGSTOWN     CLEAR      6  -4  63 CALM      30.59R
$$

OHZ042-051>053-060>062-070>072-077>081-280300-
  SOUTHWEST OHIO

CITY           SKY/WX    TMP DP  RH WIND       PRES   REMARKS
CINC-COVINGTON MOCLDY    14   1  56 N6        30.64R WCI   5
CINC-LUNKEN    PTCLDY    14   4  64 CALM      30.69R
HAMILTON       PTCLDY     8   1  73 CALM      30.68R
DAYTON         NOT AVBL
WRIGHT-PAT AFB NOT AVBL
DAYTON GENERAL PTCLDY    13   1  59 E3        30.63R
WILMINGTON     PTCLDY    10  -3  55 E5        30.63R WCI   2
$$

OHZ036-037-039>041-045>050-054>059-063>069-073>076-082>088-280300-
  CENTRAL AND SOUTHEAST OHIO

CITY           SKY/WX    TMP DP  RH WIND       PRES   REMARKS
COLUMBUS       PTCLDY    11  -3  53 N3        30.64R
OSU AIRPORT    MOCLDY    10  -2  58 NW3       30.63R
BOLTON FIELD   NOT AVBL
RICKENBACK AFB NOT AVBL
NEWARK         FAIR       3  -4  72 W3        30.63R
MARION         PTCLDY     5  -6  60 CALM      30.63R
LANCASTER      CLEAR      3  -4  72 CALM      30.64R
ZANESVILLE     CLEAR     11   0  61 N3        30.63R
NEW PHILLY     CLEAR      8  -2  63 CALM      30.63R
$$


USA.gov is the U.S. government's official web portal to all federal, state and local government web resources and services.